• In Hungary
  • List of Countries
  • For 7 days
  • Water Temperature
  • Satellite Maps
  • Weather Map
  • News
  • Weather Widgets
  • user-avatar
    Login

    Hourly Weather Cadiz

    Today, 18 January, Thursday

    Time Temperature Precipitation Wind Pressure Humidity
    00:00 +10°C° 0 mm 5 mps 765 mmHg 76%
    01:00 +10°C° 0 mm 5 mps 764 mmHg 74%
    02:00 +9°C° 0 mm 5 mps 764 mmHg 73%
    03:00 +9°C° 0 mm 5 mps 764 mmHg 71%
    04:00 +9°C° 0 mm 5 mps 764 mmHg 70%
    05:00 +9°C° 0 mm 6 mps 764 mmHg 69%
    06:00 +9°C° 0 mm 6 mps 764 mmHg 68%
    07:00 +10°C° 0 mm 6 mps 764 mmHg 68%
    08:00 +10°C° 0 mm 6 mps 764 mmHg 68%
    09:00 +11°C° 0 mm 7 mps 764 mmHg 68%
    10:00 +14°C° 0 mm 6 mps 764 mmHg 62%
    11:00 +15°C° 0 mm 6 mps 764 mmHg 57%
    12:00 +17°C° 0 mm 6 mps 764 mmHg 51%
    13:00 +19°C° 0 mm 6 mps 764 mmHg 50%
    14:00 +19°C° 0 mm 5 mps 763 mmHg 49%
    15:00 +20°C° 0 mm 5 mps 763 mmHg 47%
    16:00 +18°C° 0 mm 4 mps 763 mmHg 54%
    17:00 +15°C° 0 mm 4 mps 763 mmHg 61%
    18:00 +13°C° 0 mm 3 mps 763 mmHg 68%
    19:00 +13°C° 0 mm 3 mps 763 mmHg 69%
    20:00 +13°C° 0 mm 3 mps 763 mmHg 69%
    21:00 +13°C° 0 mm 2 mps 763 mmHg 70%
    22:00 +13°C° 0 mm 2 mps 763 mmHg 70%
    23:00 +13°C° 0 mm 2 mps 763 mmHg 70%

    Tomorrow, 19 January, Friday

    Time Temperature Precipitation Wind Pressure Humidity
    00:00 +11°C° 0 mm 3 mps 763 mmHg 70%
    01:00 +12°C° 0 mm 2 mps 763 mmHg 71%
    02:00 +12°C° 0 mm 2 mps 763 mmHg 72%
    03:00 +10°C° 0 mm 2 mps 763 mmHg 72%
    04:00 +10°C° 0 mm 2 mps 763 mmHg 74%
    05:00 +10°C° 0 mm 2 mps 763 mmHg 75%
    06:00 +9°C° 0 mm 2 mps 763 mmHg 76%
    07:00 +10°C° 0 mm 2 mps 764 mmHg 74%
    08:00 +12°C° 0 mm 2 mps 764 mmHg 73%
    09:00 +13°C° 0 mm 2 mps 764 mmHg 71%
    10:00 +14°C° 0 mm 1 mps 765 mmHg 66%
    11:00 +16°C° 0 mm 1 mps 765 mmHg 62%
    12:00 +18°C° 0 mm 1 mps 765 mmHg 57%
    13:00 +19°C° 0 mm 1 mps 765 mmHg 56%
    14:00 +19°C° 0 mm 1 mps 765 mmHg 55%
    15:00 +19°C° 0 mm 1 mps 765 mmHg 54%
    16:00 +18°C° 0 mm 1 mps 765 mmHg 59%
    17:00 +16°C° 0 mm 1 mps 766 mmHg 65%
    18:00 +14°C° 0 mm 1 mps 766 mmHg 70%
    19:00 +14°C° 0 mm 1 mps 767 mmHg 71%
    20:00 +13°C° 0 mm 1 mps 767 mmHg 72%
    21:00 +13°C° 0 mm 1 mps 768 mmHg 73%
    22:00 +12°C° 0 mm 1 mps 768 mmHg 73%
    23:00 +12°C° 0 mm 1 mps 768 mmHg 73%

    Day after tomorrow, 20 January, Saturday

    Time Temperature Precipitation Wind Pressure Humidity
    00:00 +12°C° 0 mm 2 mps 768 mmHg 74%
    01:00 +10°C° 0 mm 2 mps 768 mmHg 74%
    02:00 +10°C° 0 mm 2 mps 768 mmHg 75%
    03:00 +9°C° 0 mm 2 mps 768 mmHg 75%
    04:00 +9°C° 0 mm 2 mps 769 mmHg 76%
    05:00 +9°C° 0 mm 2 mps 769 mmHg 76%
    06:00 +9°C° 0 mm 3 mps 769 mmHg 76%
    07:00 +10°C° 0 mm 2 mps 769 mmHg 74%
    08:00 +10°C° 0 mm 2 mps 770 mmHg 71%
    09:00 +12°C° 0 mm 2 mps 770 mmHg 69%
    10:00 +14°C° 0 mm 2 mps 770 mmHg 63%
    11:00 +16°C° 0 mm 2 mps 770 mmHg 57%
    12:00 +17°C° 0 mm 2 mps 770 mmHg 51%
    13:00 +18°C° 0 mm 2 mps 770 mmHg 50%
    14:00 +18°C° 0 mm 3 mps 770 mmHg 49%
    15:00 +19°C° 0 mm 3 mps 769 mmHg 48%
    16:00 +17°C° 0 mm 3 mps 769 mmHg 54%
    17:00 +16°C° 0 mm 3 mps 769 mmHg 59%
    18:00 +14°C° 0 mm 2 mps 770 mmHg 65%
    19:00 +14°C° 0 mm 2 mps 770 mmHg 65%
    20:00 +13°C° 0 mm 2 mps 771 mmHg 64%
    21:00 +13°C° 0 mm 2 mps 771 mmHg 64%
    22:00 +12°C° 0 mm 3 mps 771 mmHg 63%
    23:00 +11°C° 0 mm 3 mps 771 mmHg 63%

    21 January, Sunday

    Time Temperature Precipitation Wind Pressure Humidity
    00:00 +11°C° 0 mm 3 mps 771 mmHg 62%
    01:00 +11°C° 0 mm 3 mps 771 mmHg 63%
    02:00 +11°C° 0 mm 3 mps 771 mmHg 65%
    03:00 +10°C° 0 mm 3 mps 771 mmHg 66%
    04:00 +10°C° 0 mm 3 mps 771 mmHg 69%
    05:00 +10°C° 0 mm 3 mps 771 mmHg 72%
    06:00 +8°C° 0 mm 4 mps 771 mmHg 75%
    07:00 +10°C° 0 mm 3 mps 771 mmHg 74%
    08:00 +11°C° 0 mm 3 mps 772 mmHg 73%
    09:00 +11°C° 0 mm 3 mps 772 mmHg 72%
    10:00 +13°C° 0 mm 3 mps 772 mmHg 66%
    11:00 +16°C° 0 mm 3 mps 772 mmHg 60%
    12:00 +18°C° 0 mm 3 mps 772 mmHg 54%
    13:00 +19°C° 0 mm 3 mps 771 mmHg 53%
    14:00 +20°C° 0 mm 3 mps 771 mmHg 52%
    15:00 +21°C° 0 mm 2 mps 770 mmHg 51%
    16:00 +19°C° 0 mm 2 mps 770 mmHg 58%
    17:00 +17°C° 0 mm 2 mps 771 mmHg 65%
    18:00 +16°C° 0 mm 2 mps 771 mmHg 72%
    19:00 +15°C° 0 mm 2 mps 771 mmHg 73%
    20:00 +15°C° 0 mm 2 mps 771 mmHg 73%
    21:00 +14°C° 0 mm 2 mps 771 mmHg 73%
    22:00 +14°C° 0 mm 2 mps 771 mmHg 73%
    23:00 +14°C° 0 mm 2 mps 771 mmHg 73%

    22 January, Monday

    Time Temperature Precipitation Wind Pressure Humidity
    00:00 +13°C° 0 mm 2 mps 771 mmHg 72%
    01:00 +13°C° 0 mm 2 mps 771 mmHg 73%
    02:00 +13°C° 0 mm 2 mps 771 mmHg 74%
    03:00 +12°C° 0 mm 3 mps 770 mmHg 74%
    04:00 +11°C° 0 mm 3 mps 770 mmHg 74%
    05:00 +11°C° 0 mm 3 mps 770 mmHg 74%
    06:00 +11°C° 0 mm 3 mps 770 mmHg 74%
    07:00 +12°C° 0 mm 3 mps 771 mmHg 72%
    08:00 +13°C° 0 mm 3 mps 771 mmHg 71%
    09:00 +13°C° 0 mm 3 mps 771 mmHg 69%
    10:00 +16°C° 0 mm 3 mps 771 mmHg 63%
    11:00 +19°C° 0 mm 3 mps 771 mmHg 56%
    12:00 +21°C° 0 mm 2 mps 771 mmHg 50%
    13:00 +21°C° 0 mm 2 mps 771 mmHg 49%
    14:00 +23°C° 0 mm 2 mps 770 mmHg 48%
    15:00 +23°C° 0 mm 2 mps 769 mmHg 47%
    16:00 +20°C° 0 mm 2 mps 770 mmHg 54%
    17:00 +19°C° 0 mm 2 mps 770 mmHg 61%
    18:00 +17°C° 0 mm 2 mps 770 mmHg 67%
    19:00 +16°C° 0 mm 2 mps 770 mmHg 69%
    20:00 +16°C° 0 mm 2 mps 770 mmHg 70%
    21:00 +15°C° 0 mm 2 mps 771 mmHg 71%
    22:00 +15°C° 0 mm 2 mps 770 mmHg 71%
    23:00 +14°C° 0 mm 2 mps 770 mmHg 70%

    23 January, Tuesday

    Time Temperature Precipitation Wind Pressure Humidity
    00:00 +13°C° 0 mm 3 mps 770 mmHg 70%
    01:00 +13°C° 0 mm 3 mps 770 mmHg 69%
    02:00 +12°C° 0 mm 3 mps 770 mmHg 69%
    03:00 +12°C° 0 mm 3 mps 769 mmHg 68%
    04:00 +12°C° 0 mm 3 mps 769 mmHg 68%
    05:00 +11°C° 0 mm 3 mps 769 mmHg 68%
    06:00 +11°C° 0 mm 3 mps 769 mmHg 67%
    07:00 +12°C° 0 mm 3 mps 770 mmHg 66%
    08:00 +12°C° 0 mm 3 mps 770 mmHg 65%
    09:00 +13°C° 0 mm 3 mps 770 mmHg 63%
    10:00 +16°C° 0 mm 3 mps 770 mmHg 57%
    11:00 +19°C° 0 mm 3 mps 770 mmHg 51%
    12:00 +21°C° 0 mm 3 mps 770 mmHg 45%
    13:00 +21°C° 0 mm 3 mps 769 mmHg 44%
    14:00 +23°C° 0 mm 2 mps 769 mmHg 43%
    15:00 +24°C° 0 mm 2 mps 768 mmHg 42%
    16:00 +21°C° 0 mm 2 mps 769 mmHg 48%
    17:00 +19°C° 0 mm 2 mps 769 mmHg 54%
    18:00 +17°C° 0 mm 2 mps 769 mmHg 59%
    19:00 +16°C° 0 mm 3 mps 769 mmHg 61%
    20:00 +14°C° 0 mm 3 mps 769 mmHg 63%
    21:00 +13°C° 0 mm 3 mps 769 mmHg 64%
    22:00 +13°C° 0 mm 3 mps 769 mmHg 63%
    23:00 +13°C° 0 mm 4 mps 769 mmHg 63%
    Show more